"Pseudo-MPEC" for C0YNCK2

Created 2019 Sep 16 15:07:03 UT using Find_Orb

Click here for an explanation of pseudo-MPECs

 
 Astrometry: 
     C0YNCK2  C2019 09 06.22022 21 51 14.50 -07 12 45.3    ~9667 20.9 GVNEOCPG96
     C0YNCK2  C2019 09 06.22577 21 51 15.18 -07 11 57.9    ~9667 20.6 GVNEOCPG96
     C0YNCK2  C2019 09 06.23132 21 51 15.87 -07 11 10.5    ~9667 20.4 GVNEOCPG96
     C0YNCK2  C2019 09 06.23690 21 51 16.57 -07 10 23.7    ~9667 21.1 GVNEOCPG96
     C0YNCK2  C2019 09 06.37721321 51 33.63 -06 50 33.4    ~96A7 20.8 GVNEOCPH01
     C0YNCK2  C2019 09 06.38178021 51 34.24 -06 49 54.7    ~96A7 20.0 GVNEOCPH01
     C0YNCK2  C2019 09 06.39025421 51 35.38 -06 48 42.5    ~96A7 20.4 GVNEOCPH01
     C0YNCK2  C2019 09 06.39906821 51 36.60 -06 47 27.8    ~96A7 20.1 GVNEOCPH01
     C0YNCK2 pC2019 09 06\5+Sc,yT\u[R9!mw[L0$2q!/YAstrometry\0oLoRoe8ItODv0PRL01
     C0YNCK2 KC2019 09 06JQE!gKeE7\Go\1d.f:vRSEL(ClsTp%SqlY67pr7qgs(Q\/rv_J)*L01
     C0YNCK2 pC2019 09 06Pe',X:(%mredacted;TKjbwcSH*'Q6c`.9E2C)b0td#DcWoj!2AeL01
     C0YNCK2 KC2019 09 07iIl@9UZGoY3lb)TL+OkG,5d=^Tpu]\e`N_y^@-ygSp-BU63Vv@maH21
     C0YNCK2 KC2019 09 07u2WJIclickmicvObZoAH)tS[;.LNd+^plY\#^_qMHmd'KZNcPFp1H21
     C0YNCK2 KC2019 09 07aX76v:AZdg:FjR+;%-b\Kia+E5Hu\aCPx3Ll.,0uV@R;[2DnMgUX734
     C0YNCK2 KC2019 09 073EZb'RI$(lTHaYP;iJn__a)NiK)!8N\/4$hqZZK\4fo(_hPDN0_1734
     C0YNCK2 KC2019 09 07^N6A*NJf)YTa!hereKu[QWJ=Mhyffor1)d99#$Q,;s6CCLV0gX\b734
     C0YNCK2 KC2019 09 07mgt=explanation*G`^gqgQd[Th2`)_PM\RS9=AKS]@W\$XvbEG*734
     C0YNCK2  C2019 09 07.33910 21 54 08.49 -04 39 17.7    ~978q 20.3 GVNEOCPI52
     C0YNCK2  C2019 09 07.34589 21 54 09.34 -04 38 23.7    ~978q 20.4 GVNEOCPI52
     C0YNCK2  C2019 09 07.34714 21 54 09.44 -04 38 14.2    ~978q       VNEOCPI52

Station data:
(734) Farpoint Observatory, Eskridge  (N38.890107 W96.001400)  US/Kansas.
   Observer G. Hug. 0.69-m reflector + CCD.
(G96) Mt. Lemmon Survey  (N32.442754 W110.788720)  US/Arizona.  Observers T.
   A. Pruyne, B. M. Africano, E. J. Christensen, G. A. Farneth, D. C. Fuls,
   A. R. Gibbs, A. D. Grauer, H. Groeller, J. A. Johnson, R. A. Kowalski, S.
   M. Larson, G. J. Leonard, D. Rankin, R. L. Seaman, F. C. Shelly. 1.5-m
   reflector + 10K CCD.
(H01) Magdalena Ridge Observatory, Socorro  (N33.984833 W107.189333)  US/New
   Mexico.  Observers W. H. Ryan, E. V. Ryan. Measurer W. H. Ryan. 2.4-m
   f/8.9 reflector + CCD.
(H21) Astronomical Research Observatory, Westfield  (N39.483057 W87.968270)
   US/Illinois. 0.76-m f/3.0 astrograph + CCD.
(I52) Steward Observatory, Mt. Lemmon Station  (N32.442547 W110.788920)
   US/Arizona.  Observers T. A. Pruyne, B. M. Africano, E. J. Christensen, G.
   A. Farneth, D. C. Fuls, A. R. Gibbs, A. D. Grauer, H. Groeller, J. A.
   Johnson, R. A. Kowalski, S. M. Larson, G. J. Leonard, D. Rankin, R. L.
   Seaman, F. C. Shelly. 1.0-m reflector + CCD.
(L01) Višnjan Observatory, Tičan  (N45.290900 E13.749300)  Croatia.
   Observers K. Korlević, E. Pettarin. Measurer E. Pettarin. 1.0-m f/2.9
   reflector + CCD.

Orbital elements:  C0YNCK2
   Perihelion 2019 Aug 10.797423 +/- 0.173 TT = 19:08:17 (JD 2458706.297423)
Epoch 2019 Sep  7.0 TT = JDT 2458733.5   Earth MOID: 0.0545   AutoNEOCP
M  15.36041987 +/- 0.11             (J2000 ecliptic)
n   0.56466781 +/- 0.00162          Peri.  335.69065 +/- 0.18
a   1.44968627 +/- 0.00277          Node   339.58028 +/- 0.0041
e   0.2742472 +/- 0.00125           Incl.    8.35981 +/- 0.028
P   1.75/637.53d           H 25.7   G  0.15   U  8.4  
q 1.05211375 +/- 0.000382    Q 1.84725879 +/- 0.00534
From 20 observations 2019 Sept. 6-7 (27.0 hr); mean residual 0".52
Residuals in arcseconds: 
190906 G96  .09-  .02+    190906 H01  .00   .21-    190907 734  .46-  1.5-    
190906 G96  .05-  .23+    190906 L01  .69-  1.2+    190907 734  .23+  1.6+    
190906 G96  .18+  .44+    190906 L01  .37+  .36-    190907 734  .17-  1.0+    
190906 G96  .52+  .20-    190906 L01  .30-  .00     190907 I52  .07-  .10+    
190906 H01  .07-  .27-    190907 H21  .07-  .00     190907 I52  .57+  .06+    
190906 H01  .10-  .36-    190907 H21  .36+  .24-    190907 I52  .17-  .39-    
190906 H01  .19-  .10-    190907 734  .15+  1.0-    

Ephemerides (geocentric):
Date (UTC) HH   RA              Dec         delta   r     elong  mag " sig PA
---- -- -- --  -------------   -----------  ------ ------ -----  --- ---- ---
2019 09 16 15  22 13 52.180   +10 22 45.33  .10205 1.0994 155.9 22.0 3.50   1
2019 09 16 16  22 13 56.593   +10 25 33.91  .10220 1.0995 155.9 22.0 3.52   1
2019 09 16 17  22 14 01.000   +10 28 21.95  .10234 1.0996 155.9 22.0 3.54   1
2019 09 16 18  22 14 05.401   +10 31 09.47  .10249 1.0997 155.8 22.0 3.57   1
2019 09 16 19  22 14 09.796   +10 33 56.46  .10263 1.0998 155.8 22.0 3.59   1
2019 09 16 20  22 14 14.186   +10 36 42.92  .10278 1.0999 155.8 22.0 3.61   1
2019 09 16 21  22 14 18.570   +10 39 28.85  .10292 1.1000 155.8 22.0 3.64   1
2019 09 16 22  22 14 22.948   +10 42 14.26  .10307 1.1001 155.7 22.0 3.66   1
2019 09 16 23  22 14 27.321   +10 44 59.15  .10321 1.1002 155.7 22.0 3.69   1
2019 09 17 00  22 14 31.688   +10 47 43.52  .10336 1.1003 155.7 22.0 3.71   1
2019 09 17 01  22 14 36.050   +10 50 27.36  .10351 1.1004 155.6 22.0 3.73   1
2019 09 17 02  22 14 40.406   +10 53 10.69  .10365 1.1005 155.6 22.0 3.76   1
2019 09 17 03  22 14 44.756   +10 55 53.51  .10380 1.1006 155.6 22.1 3.78   1
2019 09 17 04  22 14 49.101   +10 58 35.81  .10394 1.1007 155.5 22.1 3.80   1
2019 09 17 05  22 14 53.441   +11 01 17.59  .10409 1.1008 155.5 22.1 3.83   1
2019 09 17 06  22 14 57.775   +11 03 58.87  .10424 1.1009 155.5 22.1 3.85   1
2019 09 17 07  22 15 02.104   +11 06 39.63  .10438 1.1010 155.4 22.1 3.87   1
2019 09 17 08  22 15 06.427   +11 09 19.89  .10453 1.1011 155.4 22.1 3.90   1
2019 09 17 09  22 15 10.745   +11 11 59.64  .10468 1.1012 155.4 22.1 3.92   1
2019 09 17 10  22 15 15.058   +11 14 38.88  .10482 1.1013 155.3 22.1 3.95   1
2019 09 17 11  22 15 19.365   +11 17 17.62  .10497 1.1014 155.3 22.1 3.97   1
2019 09 17 12  22 15 23.667   +11 19 55.86  .10512 1.1015 155.3 22.1 3.99   1
2019 09 17 13  22 15 27.964   +11 22 33.60  .10527 1.1016 155.3 22.1 4.02   1
2019 09 17 14  22 15 32.256   +11 25 10.83  .10541 1.1018 155.2 22.1 4.04   1
2019 09 17 15  22 15 36.542   +11 27 47.57  .10556 1.1019 155.2 22.1 4.07   1
2019 09 17 16  22 15 40.823   +11 30 23.82  .10571 1.1020 155.2 22.1 4.09   1
2019 09 17 17  22 15 45.099   +11 32 59.57  .10586 1.1021 155.1 22.1 4.11   1
2019 09 17 18  22 15 49.369   +11 35 34.82  .10601 1.1022 155.1 22.1 4.14   1
2019 09 17 19  22 15 53.635   +11 38 09.58  .10616 1.1023 155.1 22.1 4.16   1
2019 09 17 20  22 15 57.895   +11 40 43.85  .10630 1.1024 155.0 22.1 4.18   1
2019 09 17 21  22 16 02.150   +11 43 17.64  .10645 1.1025 155.0 22.1 4.21   1
2019 09 17 22  22 16 06.401   +11 45 50.93  .10660 1.1026 155.0 22.1 4.23   1
2019 09 17 23  22 16 10.646   +11 48 23.74  .10675 1.1027 155.0 22.1 4.26   1
2019 09 18 00  22 16 14.886   +11 50 56.07  .10690 1.1028 154.9 22.1 4.28   1
2019 09 18 01  22 16 19.121   +11 53 27.91  .10705 1.1029 154.9 22.1 4.30   1
2019 09 18 02  22 16 23.351   +11 55 59.27  .10720 1.1030 154.9 22.1 4.33   1
2019 09 18 03  22 16 27.576   +11 58 30.15  .10735 1.1031 154.8 22.1 4.35   1
2019 09 18 04  22 16 31.796   +12 01 00.55  .10750 1.1032 154.8 22.2 4.38   1
2019 09 18 05  22 16 36.011   +12 03 30.48  .10765 1.1033 154.8 22.2 4.40   1
2019 09 18 06  22 16 40.222   +12 05 59.92  .10780 1.1034 154.7 22.2 4.42   1
2019 09 18 07  22 16 44.427   +12 08 28.90  .10795 1.1035 154.7 22.2 4.45   1
2019 09 18 08  22 16 48.628   +12 10 57.40  .10810 1.1036 154.7 22.2 4.47   1
2019 09 18 09  22 16 52.823   +12 13 25.43  .10825 1.1037 154.7 22.2 4.50   1
2019 09 18 10  22 16 57.014   +12 15 52.99  .10840 1.1038 154.6 22.2 4.52   1
2019 09 18 11  22 17 01.200   +12 18 20.08  .10855 1.1040 154.6 22.2 4.54   1
2019 09 18 12  22 17 05.381   +12 20 46.70  .10870 1.1041 154.6 22.2 4.57   1
2019 09 18 13  22 17 09.558   +12 23 12.85  .10885 1.1042 154.5 22.2 4.59   1
2019 09 18 14  22 17 13.730   +12 25 38.55  .10900 1.1043 154.5 22.2 4.62   1